Location: Akgöl Batakl???
(38.9482°N, 31.8837°E)
Time: 08:22:24
(UTC+00:00)

Milstar 3 - Pass Details

Date: 08 May 2026
Orbit: 1097 x 5148 km, 28.2° (Epoch: 6 June)

Event Time Altitude Azimuth Distance (km) Brightness Sun altitude
Rises 19:10:03 0° 259° (W) 3,943 6.1 -22.6°
Reaches altitude 10° 19:12:38 10° 251° (WSW) 3,091 5.4 -23.0°
Maximum altitude 19:19:19 39° 184° (S) 2,093 3.8 -23.8°
Enters shadow 19:20:58 36° 162° (SSE) 2,309 3.9 -24.0°
